Weather History for KXLL - March, 2013

Change the Weather History Date:

Friday, March 22, 2013

  Actual Average (KABE) Record (KABE)
Temperature  
Mean Temperature 32 °F 41 °F  
Max Temperature 37 °F 52 °F 82 °F (1938)
Min Temperature 26 °F 31 °F 15 °F (1965)
Degree Days  
Heating Degree Days 34 24  
Month to date heating degree days 605  
Since 1 July heating degree days 4914  
Cooling Degree Days 0 0  
Month to date cooling degree days 0  
Year to date cooling degree days 0  
Moisture  
Dew Point 17 °F    
Average Humidity 55    
Maximum Humidity 74    
Minimum Humidity 38    
Precipitation  
Precipitation 0.00 in 0.12 in 2.49 in (1977)
Month to date precipitation 2.33  
Year to date precipitation 8.06  
Snow  
Snow 0.00 in 0.10 in 2.60 in (1992)
Month to date snowfall 4.0  
Since 1 July snowfall 31.0  
Snow Depth -    
Sea Level Pressure  
Sea Level Pressure 29.84 in    
Wind  
Wind Speed 8 mph (West)    
Max Wind Speed 17 mph    
Max Gust Speed 25 mph    
Visibility 10 miles    
Events      
T = Trace of Precipitation, MM = Missing Value Source: NWS Daily Summary

Daily Weather History Graph

Daily Weather History Graph

Search for Another Location

Airport or City:

Trip Planner

Search our weather history database for the weather conditions in past years. The results will help you decide how hot, cold, wet, or windy it might be!

Date:

Astronomy

Mar. 22, 2013 Rise Set
Actual Time 7:01 AM EDT 7:16 PM EDT
Civil Twilight 6:34 AM EDT 7:43 PM EDT
Nautical Twilight 6:02 AM EDT 8:15 PM EDT
Astronomical Twilight 5:29 AM EDT 8:48 PM EDT
Moon 2:40 PM EDT (3/22) 4:01 AM EDT (3/22)
Length of Visible Light 13h 09m
Length of Day
12h 14m
Waxing Gibbous, 77% of the Moon is Illuminated
Mar 22
Waxing Gibbous
Mar 27
Full
Apr 3
Last Quarter
Apr 10
New
Apr 18
First Quarter

Hourly Weather History & Observations

Time (EDT) Temp. Windchill Dew Point Humidity Pressure Visibility Wind Dir Wind Speed Gust Speed Precip Events Conditions
12:15 AM 28.4 °F 24.6 °F 12.2 °F 51% 29.79 in 10.0 mi WSW 3.5 mph - N/A   Clear
12:35 AM 28.4 °F 22.2 °F 12.2 °F 51% 29.79 in 10.0 mi WSW 5.8 mph - N/A   Clear
12:55 AM 28.4 °F 22.2 °F 12.2 °F 51% 29.79 in 10.0 mi WSW 5.8 mph - N/A   Clear
1:15 AM 28.4 °F 22.2 °F 14.0 °F 55% 29.79 in 10.0 mi WSW 5.8 mph - N/A   Clear
1:35 AM 28.4 °F 21.2 °F 14.0 °F 55% 29.78 in 10.0 mi WSW 6.9 mph - N/A   Clear
1:55 AM 28.4 °F 22.2 °F 14.0 °F 55% 29.79 in 10.0 mi West 5.8 mph - N/A   Clear
2:15 AM 28.4 °F 22.2 °F 14.0 °F 55% 29.78 in 10.0 mi WSW 5.8 mph - N/A   Clear
2:35 AM 28.4 °F 20.4 °F 15.8 °F 59% 29.78 in 10.0 mi WSW 8.1 mph - N/A   Clear
2:55 AM 28.4 °F 22.2 °F 15.8 °F 59% 29.78 in 10.0 mi West 5.8 mph - N/A   Clear
3:15 AM 28.4 °F 19.7 °F 15.8 °F 59% 29.78 in 10.0 mi West 9.2 mph - N/A   Clear
3:35 AM 28.4 °F 21.2 °F 15.8 °F 59% 29.78 in 10.0 mi West 6.9 mph - N/A   Clear
3:55 AM 28.4 °F 22.2 °F 17.6 °F 64% 29.78 in 10.0 mi West 5.8 mph - N/A   Clear
4:15 AM 28.4 °F 21.2 °F 17.6 °F 64% 29.78 in 10.0 mi WSW 6.9 mph - N/A   Scattered Clouds
4:35 AM 26.6 °F 20.0 °F 17.6 °F 69% 29.78 in 10.0 mi WSW 5.8 mph - N/A   Clear
4:55 AM 26.6 °F 18.2 °F 17.6 °F 69% 29.78 in 10.0 mi WSW 8.1 mph - N/A   Clear
5:15 AM 26.6 °F 16.8 °F 19.4 °F 74% 29.78 in 10.0 mi WSW 10.4 mph 16.1 mph N/A   Clear
5:35 AM 26.6 °F 19.1 °F 19.4 °F 74% 29.78 in 10.0 mi WSW 6.9 mph - N/A   Clear
5:55 AM 26.6 °F 19.1 °F 19.4 °F 74% 29.79 in 10.0 mi WSW 6.9 mph - N/A   Clear
6:15 AM 28.4 °F 22.2 °F 19.4 °F 69% 29.80 in 10.0 mi West 5.8 mph - N/A   Clear
6:35 AM 26.6 °F 20.0 °F 19.4 °F 74% 29.80 in 10.0 mi West 5.8 mph - N/A   Clear
6:55 AM 26.6 °F 20.0 °F 19.4 °F 74% 29.81 in 10.0 mi WSW 5.8 mph - N/A   Clear
7:15 AM 26.6 °F 20.0 °F 19.4 °F 74% 29.81 in 10.0 mi WSW 5.8 mph - N/A   Clear
7:35 AM 28.4 °F 21.2 °F 19.4 °F 69% 29.82 in 10.0 mi West 6.9 mph - N/A   Clear
7:55 AM 28.4 °F 21.2 °F 19.4 °F 69% 29.83 in 10.0 mi WSW 6.9 mph - N/A   Scattered Clouds
8:15 AM 30.2 °F 24.3 °F 19.4 °F 64% 29.84 in 10.0 mi WSW 5.8 mph - N/A   Scattered Clouds
8:35 AM 30.2 °F 22.6 °F 19.4 °F 64% 29.84 in 10.0 mi WSW 8.1 mph - N/A   Clear
8:55 AM 32.0 °F 25.6 °F 19.4 °F 60% 29.84 in 10.0 mi West 6.9 mph - N/A   Mostly Cloudy
9:15 AM 32.0 °F 23.0 °F 17.6 °F 55% 29.84 in 10.0 mi West 11.5 mph 17.3 mph N/A   Overcast
9:35 AM 32.0 °F 23.0 °F 17.6 °F 55% 29.84 in 10.0 mi NW 11.5 mph 19.6 mph N/A   Mostly Cloudy
9:55 AM 32.0 °F 20.8 °F 17.6 °F 55% 29.85 in 10.0 mi WNW 17.3 mph 23.0 mph N/A   Mostly Cloudy
10:15 AM 33.8 °F 24.8 °F 15.8 °F 48% 29.85 in 10.0 mi West 12.7 mph 25.3 mph N/A   Scattered Clouds
10:55 AM 33.8 °F 27.7 °F 14.0 °F 44% 29.84 in 10.0 mi West 6.9 mph 19.6 mph N/A   Scattered Clouds
11:15 AM 35.6 °F 27.5 °F 14.0 °F 41% 29.84 in 10.0 mi West 11.5 mph 17.3 mph N/A   Mostly Cloudy
11:35 AM 33.8 °F 23.9 °F 12.2 °F 41% 29.84 in 10.0 mi NW 15.0 mph 19.6 mph N/A   Overcast
11:55 AM 33.8 °F 24.8 °F 14.0 °F 44% 29.84 in 10.0 mi West 12.7 mph 19.6 mph N/A   Overcast
12:15 PM 35.6 °F 27.1 °F 14.0 °F 41% 29.84 in 10.0 mi WNW 12.7 mph 21.9 mph N/A   Mostly Cloudy
12:35 PM 37.4 °F 30.3 °F 14.0 °F 38% 29.83 in 10.0 mi West 10.4 mph 23.0 mph N/A   Overcast
12:55 PM 35.6 °F 27.5 °F 14.0 °F 41% 29.84 in 10.0 mi West 11.5 mph 19.6 mph N/A   Overcast
1:15 PM 35.6 °F 27.1 °F 14.0 °F 41% 29.84 in 10.0 mi West 12.7 mph 17.3 mph N/A   Mostly Cloudy
1:35 PM 35.6 °F 27.1 °F 14.0 °F 41% 29.84 in 10.0 mi WNW 12.7 mph 18.4 mph N/A   Mostly Cloudy
1:55 PM 37.4 °F 29.8 °F 15.8 °F 41% 29.83 in 10.0 mi WNW 11.5 mph 17.3 mph N/A   Mostly Cloudy
2:15 PM 37.4 °F 29.8 °F 14.0 °F 38% 29.83 in 10.0 mi West 11.5 mph 21.9 mph N/A   Mostly Cloudy
2:35 PM 37.4 °F 29.8 °F 14.0 °F 38% 29.83 in 10.0 mi West 11.5 mph 19.6 mph N/A   Scattered Clouds
2:55 PM 35.6 °F 27.1 °F 17.6 °F 48% 29.83 in 10.0 mi West 12.7 mph 18.4 mph N/A   Scattered Clouds
3:15 PM 37.4 °F 29.3 °F 19.4 °F 48% 29.83 in 10.0 mi West 12.7 mph 18.4 mph N/A   Scattered Clouds
3:35 PM 37.4 °F 29.3 °F 21.2 °F 52% 29.83 in 10.0 mi West 12.7 mph 20.7 mph N/A   Scattered Clouds
3:55 PM 37.4 °F 28.9 °F 19.4 °F 48% 29.84 in 10.0 mi West 13.8 mph 19.6 mph N/A   Mostly Cloudy
4:15 PM 37.4 °F 29.8 °F 17.6 °F 45% 29.84 in 10.0 mi WNW 11.5 mph 23.0 mph N/A   Overcast
4:35 PM 37.4 °F 29.8 °F 17.6 °F 45% 29.84 in 10.0 mi WNW 11.5 mph 21.9 mph N/A   Overcast
4:55 PM 37.4 °F 30.3 °F 19.4 °F 48% 29.84 in 10.0 mi West 10.4 mph 21.9 mph N/A   Mostly Cloudy
5:15 PM 37.4 °F 28.9 °F 19.4 °F 48% 29.85 in 10.0 mi West 13.8 mph 24.2 mph N/A   Mostly Cloudy
5:35 PM 37.4 °F 27.8 °F 19.4 °F 48% 29.85 in 10.0 mi WNW 17.3 mph 20.7 mph N/A   Scattered Clouds
5:55 PM 35.6 °F 27.1 °F 19.4 °F 52% 29.86 in 10.0 mi West 12.7 mph 20.7 mph N/A   Scattered Clouds
6:15 PM 37.4 °F 28.5 °F 19.4 °F 48% 29.86 in 10.0 mi WSW 15.0 mph 19.6 mph N/A   Mostly Cloudy
6:35 PM 35.6 °F 27.1 °F 21.2 °F 56% 29.87 in 10.0 mi West 12.7 mph 20.7 mph N/A   Overcast
6:55 PM 35.6 °F 28.0 °F 21.2 °F 56% 29.89 in 10.0 mi West 10.4 mph 19.6 mph N/A   Mostly Cloudy
7:15 PM 33.8 °F 24.8 °F 21.2 °F 60% 29.89 in 10.0 mi West 12.7 mph 20.7 mph N/A   Scattered Clouds
7:35 PM 33.8 °F 25.3 °F 21.2 °F 60% 29.90 in 10.0 mi WSW 11.5 mph 19.6 mph N/A   Clear
7:55 PM 33.8 °F 26.4 °F 21.2 °F 60% 29.91 in 10.0 mi WSW 9.2 mph 17.3 mph N/A   Clear
8:15 PM 32.0 °F 24.8 °F 21.2 °F 64% 29.91 in 10.0 mi WSW 8.1 mph - N/A   Clear
8:35 PM 32.0 °F 25.6 °F 19.4 °F 60% 29.91 in 10.0 mi West 6.9 mph - N/A   Clear
8:55 PM 32.0 °F 24.8 °F 19.4 °F 60% 29.91 in 10.0 mi West 8.1 mph - N/A   Clear
9:15 PM 32.0 °F 23.6 °F 19.4 °F 60% 29.92 in 10.0 mi West 10.4 mph - N/A   Clear
9:35 PM 32.0 °F 26.4 °F 19.4 °F 60% 29.92 in 10.0 mi West 5.8 mph - N/A   Clear
9:55 PM 32.0 °F 25.6 °F 19.4 °F 60% 29.93 in 10.0 mi West 6.9 mph - N/A   Clear
10:15 PM 32.0 °F 23.6 °F 17.6 °F 55% 29.93 in 10.0 mi West 10.4 mph - N/A   Clear
10:35 PM 32.0 °F 24.2 °F 17.6 °F 55% 29.93 in 10.0 mi West 9.2 mph - N/A   Clear
10:55 PM 32.0 °F 23.0 °F 17.6 °F 55% 29.93 in 10.0 mi West 11.5 mph 17.3 mph N/A   Clear
11:15 PM 32.0 °F 25.6 °F 17.6 °F 55% 29.93 in 10.0 mi West 6.9 mph - N/A   Clear
11:35 PM 32.0 °F 24.8 °F 17.6 °F 55% 29.93 in 10.0 mi West 8.1 mph - N/A   Clear
11:55 PM 32.0 °F 24.2 °F 17.6 °F 55% 29.93 in 10.0 mi West 9.2 mph - N/A   Clear